MAYA-4 (49274 NORAD) Tracking and Keplerian Element Data

This shows tracking and keplerian element data for the satellite.

Feedback or suggestion? Click here.




ElementValue
Catalog49274
NameMAYA-4
Epoch Orbit4364
Epoch Day193.19924864
Epoch Year2022
RAAN188.5662
Inclination51.6279
Eccentricity0.0008571
Argument of Perigee38.1122
Mean Anonmoly322.0488
Mean Motion15.88839134
Decay Rate0.00352112
L11 49274U 98067ST 22193.19924864 .00352112 00000+0 11669-2 0 9994
L22 49274 51.6279 188.5662 0008571 38.1122 322.0488 15.88839134 43646



Live tracking and technical data element details for MAYA-4 (NORAD 49274). MAYA-4 can be tracked NOW for your location showing map with azimuth and elevation plus other details from your city location.







IsCatalogInMostPopularTable: catalog: 49274, numindb: 98
Update: records affected: 1



GetName: 49274 MAYA-4

Hit Count: updated at: Thu, 23 Jan 2025 18:02:21 GMT